Location: Dompnac
(44.5644°N, 4.1026°E)
Time: 20:26:13
(UTC+00:00)

COSMOS 2406 - Pass Details

Date: 19 September 2020
Orbit: 844 x 863 km, 71.0° (Epoch: 27 October)

Event Time Altitude Azimuth Distance (km) Brightness Sun altitude
Rises 20:36:08 0° 336° (NNW) 3,413 7.2 -29.3°
Reaches altitude 10° 20:38:37 10° 339° (NNW) 2,474 6.3 -29.6°
Enters shadow 20:43:09 54° 7° (N) 1,018 3.6 -30.3°
